TimePDT,TemperatureF,Dew PointF,Humidity,Sea Level PressureIn,VisibilityMPH,Wind Direction,Wind SpeedMPH,Gust SpeedMPH,PrecipitationIn,Events,Conditions,WindDirDegrees,DateUTC
12:53 AM,48.9,46.9,93,30.00,10.0,SSW,9.2,-,0.01,Rain,Light Rain,210,2013-05-24 07:53:00
1:53 AM,48.9,46.9,93,30.00,10.0,SSW,5.8,-,0.00,,Overcast,210,2013-05-24 08:53:00
2:34 AM,48.2,46.4,93,29.99,7.0,South,5.8,-,0.00,Rain,Light Rain,190,2013-05-24 09:34:00
2:41 AM,48.2,46.4,93,29.99,10.0,South,8.1,-,0.00,,Overcast,190,2013-05-24 09:41:00
2:53 AM,48.9,46.9,93,30.00,10.0,SSW,9.2,-,0.00,,Overcast,200,2013-05-24 09:53:00
3:53 AM,48.0,46.0,93,30.00,10.0,South,8.1,-,0.01,Rain,Light Rain,190,2013-05-24 10:53:00
4:36 AM,48.2,46.4,93,30.01,10.0,SSW,5.8,-,0.00,,Overcast,200,2013-05-24 11:36:00
4:49 AM,48.2,46.4,93,30.01,10.0,South,6.9,-,0.00,,Overcast,190,2013-05-24 11:49:00
4:53 AM,48.0,46.0,93,30.01,10.0,SSW,6.9,-,0.00,,Overcast,200,2013-05-24 11:53:00
5:53 AM,46.9,45.0,93,30.01,10.0,SSW,4.6,-,N/A,,Overcast,200,2013-05-24 12:53:00
6:53 AM,48.9,46.0,90,30.03,10.0,Calm,Calm,-,N/A,,Overcast,0,2013-05-24 13:53:00
7:53 AM,51.1,46.0,83,30.04,10.0,South,13.8,-,N/A,,Overcast,190,2013-05-24 14:53:00
8:53 AM,51.1,45.0,80,30.05,10.0,South,13.8,-,0.00,Rain,Light Rain,180,2013-05-24 15:53:00
9:48 AM,51.8,44.6,76,30.06,10.0,South,12.7,-,0.00,,Overcast,180,2013-05-24 16:48:00
9:53 AM,52.0,45.0,77,30.06,10.0,South,15.0,-,0.00,,Overcast,180,2013-05-24 16:53:00
10:31 AM,53.6,46.4,77,30.06,10.0,South,15.0,-,N/A,,Overcast,190,2013-05-24 17:31:00
10:53 AM,53.1,46.0,77,30.07,10.0,South,13.8,21.9,N/A,,Overcast,180,2013-05-24 17:53:00
11:06 AM,53.6,46.4,77,30.07,10.0,South,16.1,-,N/A,,Overcast,170,2013-05-24 18:06:00
11:19 AM,53.6,46.4,77,30.07,10.0,South,10.4,20.7,N/A,,Overcast,180,2013-05-24 18:19:00
11:49 AM,55.4,46.4,72,30.07,10.0,South,11.5,-,0.00,,Overcast,190,2013-05-24 18:49:00
11:53 AM,54.0,46.9,77,30.07,10.0,South,16.1,21.9,0.00,,Overcast,190,2013-05-24 18:53:00
12:53 PM,55.0,48.0,77,30.08,10.0,SSW,13.8,-,0.00,Rain,Light Rain,210,2013-05-24 19:53:00
1:45 PM,55.4,48.2,77,30.08,10.0,South,15.0,21.9,0.02,Rain,Light Rain,180,2013-05-24 20:45:00
1:53 PM,55.9,50.0,80,30.08,10.0,SSW,17.3,24.2,0.02,Rain,Light Rain,200,2013-05-24 20:53:00
2:53 PM,57.0,50.0,77,30.08,10.0,South,13.8,19.6,0.00,Rain,Light Rain,190,2013-05-24 21:53:00
3:53 PM,55.0,51.1,86,30.08,8.0,South,5.8,-,0.02,Rain,Light Rain,190,2013-05-24 22:53:00
4:10 PM,55.4,51.8,88,30.08,10.0,SSW,9.2,-,0.00,,Overcast,200,2013-05-24 23:10:00
4:53 PM,59.0,51.1,75,30.07,10.0,SW,8.1,-,0.00,,Overcast,230,2013-05-24 23:53:00
5:53 PM,60.1,46.0,60,30.07,10.0,West,9.2,-,N/A,,Partly Cloudy,260,2013-05-25 00:53:00
6:53 PM,59.0,45.0,60,30.08,10.0,West,9.2,-,N/A,,Overcast,280,2013-05-25 01:53:00
7:53 PM,54.0,46.0,75,30.09,10.0,WSW,6.9,-,N/A,,Overcast,250,2013-05-25 02:53:00
8:53 PM,53.1,46.9,80,30.09,10.0,SW,3.5,-,N/A,,Overcast,220,2013-05-25 03:53:00
9:53 PM,52.0,46.9,83,30.10,10.0,WSW,3.5,-,N/A,,Overcast,240,2013-05-25 04:53:00
10:53 PM,52.0,46.9,83,30.10,10.0,Calm,Calm,-,N/A,,Overcast,0,2013-05-25 05:53:00
11:53 PM,51.1,46.9,86,30.09,10.0,SSW,3.5,-,N/A,,Overcast,200,2013-05-25 06:53:00